Voltar ao catálogo

STARLINK-33576

AtivoComunicaçõesVLEO
NORAD 62775·PAYLOAD·🇺🇸 United States

Lançado Jan 21, 2025 de Vandenberg Space Force Base

Loading…

Próximas Passagens (próximas 24 horas)

TLE

AtualizadoSource: CelesTrak SupGP

Época: Sep 14, 2026, 21:22 UTC

1 62775C 25015T   26257.89076389 -.00056321  00000+0 -16632-2 0  2577
2 62775  53.1566 159.6621 0001103  99.1099 302.0068 15.34433485    17

Acompanhe STARLINK-33576 em tempo real com AllMySat

Download on the App Store